Location: Deer Path Park
(40.5570°N, 74.8450°W)
Time: 09:43:59
(UTC-04:00)

Iridium 49 - Visible Passes

Search period start: 24 May 2016 00:00
Search period end: 03 June 2016 00:00
Orbit: 776 x 779 km, 86.4° (Epoch: 23 May)

Date Brightness Start Highest point End Pass type
(mag) Time Alt. Az. Time Alt. Az. Time Alt. Az.
24 May 6.5 00:00:14 10° N 00:04:59 51° ENE 00:04:59 51° ENE visible
24 May 8.0 01:42:13 10° NW 01:45:27 18° WNW 01:45:27 18° WNW visible
24 May 7.2 23:27:09 10° NNE 23:31:36 28° ENE 23:31:36 28° ENE visible
25 May 7.2 01:07:45 10° NNW 01:12:05 31° WNW 01:12:05 31° WNW visible
25 May 7.9 22:54:41 10° NE 22:57:50 16° ENE 22:58:14 16° E visible
26 May 6.3 00:33:50 10° N 00:38:42 58° WNW 00:38:42 58° WNW visible
27 May 6.0 00:00:14 10° N 00:05:20 75° ENE 00:05:20 75° ENE visible
27 May 8.3 01:43:34 10° NW 01:45:26 12° WNW 01:45:49 12° W visible
27 May 6.7 23:26:56 10° NNE 23:31:52 41° E 23:31:59 41° E visible
28 May 7.7 01:08:19 10° NNW 01:12:16 22° W 01:12:27 22° W visible
28 May 7.5 22:54:03 10° NNE 22:58:07 23° ENE 22:58:37 22° E visible
29 May 6.8 00:34:08 10° NNW 00:38:58 40° W 00:39:05 40° W visible
29 May 8.1 22:22:08 10° NE 22:24:14 12° ENE 22:25:16 12° E visible
30 May 6.0 00:00:20 10° N 00:05:34 75° W 00:05:45 74° WSW visible
30 May 6.1 23:26:51 10° N 23:32:02 59° E 23:32:24 58° ESE visible
31 May 8.1 01:09:12 10° NW 01:12:10 15° WNW 01:12:53 15° W visible
31 May 6.9 22:53:42 10° NNE 22:58:21 32° E 22:59:04 31° E visible
01 Jun 7.4 00:34:33 10° NNW 00:38:57 28° W 00:39:33 27° W visible
01 Jun 7.7 22:21:03 10° NNE 22:24:34 18° ENE 22:25:44 17° E visible
02 Jun 6.4 00:00:33 10° NNW 00:05:36 51° W 00:06:13 48° WSW visible
02 Jun 5.9 23:26:53 10° N 23:32:09 86° E 23:32:54 66° SSE visible
